GW2748 Weather Reports


Display with metric or nautical units.
time (UTC)temp
F
wind
direction
speed
MPH
gust
MPH
rain 1hr
in
rain 24hr
in
rain mn
in
humidity
%
barometer
mb
20260507054358 37 289 0.0 0.0 0.00 0.07 0.07 92 1009.9
20260507053855 37 281 0.0 0.0 0.00 0.07 0.07 91 1009.9
20260507053353 37 262 0.0 0.0 0.05 0.07 0.07 92 1009.8
20260507052852 37 282 1.0 1.0 0.05 0.07 0.07 94 1009.8
20260507052348 37 300 0.0 1.0 0.00 0.06 0.06 95 1009.7
20260507051845 37 316 2.0 2.0 0.00 0.06 0.06 94 1009.7
20260507051343 38 226 1.0 2.0 0.00 0.06 0.06 92 1009.5
20260507050834 38 216 2.0 2.0 0.07 0.06 0.06 91 1009.7
20260507050330 38 249 0.0 0.0 0.07 0.06 0.06 91 1009.5
20260507045827 37 283 0.0 0.0 0.07 0.06 0.06 91 1009.7
20260507045324 37 284 0.0 0.0 0.00 0.05 0.05 91 1009.7
20260507044821 37 283 0.0 1.0 0.00 0.05 0.05 91 1009.7
20260507044318 37 288 0.0 1.0 0.07 0.05 0.05 94 1010.0
20260507043814 37 292 0.0 0.0 0.07 0.05 0.05 94 1009.7
20260507043310 36 282 0.0 0.0 0.05 0.04 0.04 94 1009.6
20260507042807 36 307 3.0 3.0 0.12 0.04 0.04 94 1009.8
20260507042306 36 324 3.0 3.0 0.07 0.03 0.03 94 1009.7
20260507041800 36 343 3.0 3.0 0.05 0.02 0.02 94 1009.8
20260507041256 37 352 3.0 3.0 0.05 0.02 0.02 93 1009.6
20260507040753 37 42 3.0 6.0 0.07 0.01 0.01 93 1009.7
20260507040249 37 11 3.0 6.0 0.07 0.01 0.01 92 1009.6
20260507035745 38 32 3.0 3.0 0.00 0.00 0.00 90 1009.5
20260507035241 39 49 5.0 7.0 0.00 0.00 0.00 87 1009.5
20260507034739 40 328 2.0 3.0 0.00 0.00 0.00 84 1009.3
20260507034235 41 161 5.0 6.0 0.00 0.00 0.00 85 1009.1
20260507033734 42 223 2.0 2.0 0.00 0.00 0.00 83 1009.0
20260507033231 42 304 1.0 2.0 0.00 0.00 0.00 78 1008.9
20260507032728 42 319 1.0 2.0 0.00 0.00 0.00 78 1008.7
20260507032224 41 336 3.0 5.0 0.00 0.00 0.00 77 1009.0
20260507031721 41 292 0.0 0.0 0.00 0.00 0.00 79 1008.9
20260507031217 41 302 0.0 0.0 0.00 0.00 0.00 81 1008.8
20260507030714 41 178 2.0 3.0 0.00 0.00 0.00 83 1008.7
20260507030212 41 252 1.0 1.0 0.00 0.00 0.00 83 1008.6
20260507025709 41 269 0.0 0.0 0.00 0.00 0.00 82 1008.9
20260507025206 41 186 2.0 2.0 0.00 0.00 0.00 82 1008.7
20260507024704 42 199 2.0 2.0 0.00 0.00 0.00 81 1008.7
20260507024201 42 248 1.0 1.0 0.00 0.00 0.00 76 1008.6
20260507023656 42 262 0.0 0.0 0.00 0.00 0.00 78 1008.7
20260507023154 42 176 2.0 2.0 0.00 0.00 0.00 79 1008.8
20260507022651 42 287 0.0 0.0 0.00 0.00 0.00 81 1008.6
20260507022146 42 216 1.0 2.0 0.00 0.00 0.00 79 1008.6
20260507021643 43 238 1.0 1.0 0.00 0.00 0.00 78 1008.4
20260507021138 43 287 2.0 2.0 0.00 0.00 0.00 77 1008.5
20260507020637 43 286 1.0 1.0 0.00 0.00 0.00 76 1008.4
20260507020132 43 250 1.0 1.0 0.00 0.00 0.00 76 1008.5
20260507015631 43 219 1.0 1.0 0.00 0.00 0.00 78 1008.4
20260507015128 43 353 1.0 2.0 0.00 0.00 0.00 76 1008.3
20260507014625 43 332 1.0 2.0 0.00 0.00 0.00 74 1008.1
20260507014121 43 306 1.0 1.0 0.00 0.00 0.00 76 1008.3
20260507013618 43 283 0.0 0.0 0.00 0.00 0.00 79 1008.1
20260507013115 42 323 1.0 2.0 0.00 0.00 0.00 79 1008.4
20260507012612 42 277 0.0 0.0 0.00 0.00 0.00 81 1008.4
20260507012107 42 291 1.0 2.0 0.00 0.00 0.00 83 1008.3
20260507011606 42 304 1.0 1.0 0.00 0.00 0.00 82 1008.3
20260507011102 41 278 0.0 0.0 0.00 0.00 0.00 81 1008.3
20260507010556 42 277 1.0 1.0 0.00 0.00 0.00 81 1008.3
20260507010052 41 291 1.0 1.0 0.00 0.00 0.00 81 1008.5
20260507005550 41 287 0.0 0.0 0.00 0.00 0.00 83 1008.4
20260507005046 41 41 2.0 2.0 0.00 0.00 0.00 83 1008.4
20260507004543 41 222 2.0 2.0 0.00 0.00 0.00 83 1008.0
20260507004041 41 216 3.0 3.0 0.00 0.00 0.00 83 1008.1
20260507003536 41 193 1.0 2.0 0.00 0.00 0.00 82 1008.1
20260507003032 41 186 1.0 2.0 0.00 0.00 0.00 84 1008.4
20260507002528 41 250 2.0 2.0 0.00 0.00 0.00 83 1008.1
20260507002019 41 330 1.0 1.0 0.00 0.00 0.00 83 1008.0
20260507001515 41 299 0.0 1.0 0.00 0.00 0.00 84 1008.1
20260507001013 41 139 4.0 5.0 0.00 0.00 0.00 84 1008.1
20260507000509 41 190 2.0 2.0 0.00 0.00 0.00 85 1008.3
20260507000005 41 143 3.0 5.0 0.00 0.00 0.00 84 1007.9
20260506235502 41 162 3.0 3.0 0.00 0.00 0.00 83 1007.9
20260506234958 42 164 6.0 7.0 0.00 0.00 0.00 82 1007.8
20260506234455 42 88 3.0 5.0 0.00 0.00 0.00 79 1007.8
20260506233953 42 21 2.0 2.0 0.00 0.00 0.00 80 1007.6
20260506233449 43 33 2.0 2.0 0.00 0.00 0.00 78 1007.7
20260506232945 42 95 3.0 3.0 0.00 0.00 0.00 79 1007.7
20260506232442 42 322 3.0 3.0 0.00 0.00 0.00 77 1007.8
20260506231938 42 25 3.0 3.0 0.00 0.00 0.00 76 1007.8
20260506231436 43 147 3.0 3.0 0.00 0.00 0.00 73 1007.8
20260506230933 42 174 4.0 5.0 0.00 0.00 0.00 74 1007.7
20260506230429 42 274 3.0 5.0 0.00 0.00 0.00 75 1007.7
20260506225925 42 184 4.0 6.0 0.00 0.00 0.00 75 1007.5
20260506225423 43 134 4.0 5.0 0.00 0.00 0.00 72 1007.7
20260506224920 43 97 3.0 5.0 0.00 0.00 0.00 73 1007.6
20260506224417 42 156 3.0 3.0 0.00 0.00 0.00 72 1007.6
20260506223913 43 155 4.0 5.0 0.00 0.00 0.00 73 1007.4
20260506223409 43 232 1.0 2.0 0.00 0.00 0.00 74 1007.6
20260506222906 42 181 3.0 3.0 0.00 0.00 0.00 74 1007.3
20260506222402 42 192 1.0 1.0 0.00 0.00 0.00 75 1007.4
20260506221900 42 264 1.0 1.0 0.00 0.00 0.00 75 1007.4
20260506221356 43 140 2.0 3.0 0.00 0.00 0.00 73 1007.4
20260506220854 45 293 3.0 3.0 0.00 0.00 0.00 68 1007.2
20260506220350 45 210 3.0 5.0 0.00 0.00 0.00 61 1007.4
20260506215846 45 356 4.0 6.0 0.00 0.00 0.00 63 1007.0
20260506215342 44 328 2.0 2.0 0.00 0.00 0.00 70 1007.2
20260506214838 43 325 1.0 1.0 0.00 0.00 0.00 75 1007.4
20260506214335 44 167 5.0 6.0 0.00 0.00 0.00 74 1007.0
20260506213834 44 257 1.0 1.0 0.00 0.00 0.00 73 1007.0
20260506213330 44 179 3.0 5.0 0.00 0.00 0.00 73 1007.1
20260506212828 44 190 2.0 2.0 0.00 0.00 0.00 74 1007.0
20260506212323 44 128 3.0 3.0 0.00 0.00 0.00 73 1007.1
20260506211819 45 171 3.0 3.0 0.00 0.00 0.00 73 1007.0
20260506211315 44 194 5.0 6.0 0.00 0.00 0.00 72 1007.0
20260506210813 44 175 3.0 5.0 0.00 0.00 0.00 72 1006.8
20260506210309 43 33 3.0 3.0 0.00 0.00 0.00 75 1006.8
20260506205806 43 115 3.0 3.0 0.00 0.00 0.00 76 1007.0
20260506205305 44 146 3.0 5.0 0.00 0.00 0.00 75 1006.6
20260506204758 44 150 6.0 7.0 0.00 0.00 0.00 74 1006.7
20260506204257 44 242 1.0 1.0 0.00 0.00 0.00 73 1006.7
20260506203754 44 259 1.0 1.0 0.00 0.00 0.00 73 1006.5
20260506203251 44 160 4.0 6.0 0.00 0.00 0.00 73 1006.7
20260506202748 43 77 2.0 3.0 0.00 0.00 0.00 74 1006.5
20260506202245 44 239 2.0 3.0 0.00 0.00 0.00 75 1006.6
20260506201741 44 52 3.0 3.0 0.00 0.00 0.00 75 1006.4
20260506201238 43 36 3.0 3.0 0.00 0.00 0.00 72 1006.3
20260506200735 43 268 3.0 3.0 0.00 0.00 0.00 76 1006.4
20260506200232 43 178 3.0 5.0 0.00 0.00 0.00 78 1006.4
20260506195728 43 269 3.0 5.0 0.00 0.00 0.00 77 1006.4
20260506195225 43 242 2.0 2.0 0.00 0.00 0.00 77 1006.4
20260506194722 43 187 5.0 6.0 0.00 0.00 0.00 76 1006.5
20260506194218 42 202 2.0 3.0 0.00 0.00 0.00 78 1006.4
20260506193716 43 84 2.0 2.0 0.00 0.00 0.00 77 1006.3
20260506193213 43 199 2.0 3.0 0.00 0.00 0.00 77 1006.1
20260506192709 43 268 1.0 1.0 0.00 0.00 0.00 73 1006.2
20260506192206 43 277 1.0 1.0 0.00 0.00 0.00 75 1006.4
20260506191657 41 218 2.0 2.0 0.00 0.00 0.00 77 1006.2
20260506191153 41 224 3.0 3.0 0.00 0.00 0.00 77 1006.4
20260506190651 41 164 2.0 2.0 0.00 0.00 0.00 78 1006.4
20260506190147 41 176 2.0 3.0 0.00 0.00 0.00 78 1006.5
20260506185644 41 176 6.0 7.0 0.00 0.00 0.00 78 1006.0
20260506185140 41 192 3.0 3.0 0.00 0.00 0.00 79 1006.2
20260506184638 41 124 2.0 2.0 0.00 0.00 0.00 80 1006.1
20260506184135 41 207 2.0 2.0 0.00 0.00 0.00 79 1006.2
20260506183632 40 213 2.0 2.0 0.00 0.00 0.00 80 1005.9
20260506183128 40 63 3.0 3.0 0.00 0.00 0.00 79 1006.1
20260506182625 40 214 2.0 2.0 0.00 0.00 0.00 80 1006.3
20260506182122 40 214 1.0 2.0 0.00 0.00 0.00 81 1006.1
20260506181620 40 235 1.0 1.0 0.00 0.00 0.00 81 1006.1
20260506181117 40 240 2.0 2.0 0.00 0.00 0.00 81 1006.0
20260506180614 39 218 1.0 2.0 0.00 0.00 0.00 81 1005.9
20260506180110 39 190 2.0 2.0 0.00 0.00 0.00 81 1005.9
20260506175607 39 264 0.0 0.0 0.00 0.00 0.00 81 1005.9
20260506175103 39 210 2.0 3.0 0.00 0.00 0.00 82 1005.9
20260506174602 39 263 1.0 1.0 0.00 0.00 0.00 81 1005.8
20260506174057 39 277 0.0 0.0 0.00 0.00 0.00 81 1005.8
20260506173555 39 230 1.0 1.0 0.00 0.00 0.00 81 1006.1
20260506173052 39 268 0.0 0.0 0.00 0.00 0.00 82 1005.9
20260506172549 39 186 3.0 3.0 0.00 0.00 0.00 81 1005.8
20260506172045 39 240 1.0 1.0 0.00 0.00 0.00 80 1005.8
20260506171543 39 254 0.0 1.0 0.00 0.00 0.00 81 1005.7
20260506171040 39 195 2.0 2.0 0.00 0.00 0.00 81 1005.6
20260506170537 39 48 2.0 2.0 0.00 0.00 0.00 81 1005.8
20260506170030 39 277 0.0 1.0 0.00 0.00 0.00 81 1005.6
20260506165528 38 292 0.0 0.0 0.00 0.00 0.00 81 1005.6
20260506165024 38 259 1.0 1.0 0.00 0.00 0.00 81 1005.8
20260506164520 38 284 0.0 0.0 0.00 0.00 0.00 81 1005.5
20260506164018 38 289 0.0 0.0 0.00 0.00 0.00 81 1005.5
20260506163514 38 304 1.0 1.0 0.00 0.00 0.00 82 1005.3
20260506163010 38 303 0.0 1.0 0.00 0.00 0.00 82 1005.4
20260506162506 38 331 2.0 2.0 0.00 0.00 0.00 82 1005.5
20260506162003 37 302 0.0 1.0 0.00 0.00 0.00 83 1005.3
20260506161500 37 285 0.0 0.0 0.00 0.00 0.00 84 1005.3
20260506160952 37 289 0.0 0.0 0.00 0.00 0.00 83 1005.2
20260506160450 37 307 1.0 1.0 0.00 0.00 0.00 83 1005.2
20260506155947 37 298 0.0 1.0 0.00 0.00 0.00 83 1005.2
20260506155444 37 302 0.0 0.0 0.00 0.00 0.00 83 1005.0
20260506153616 37 306 0.0 1.0 0.00 0.00 0.00 83 1005.2
20260506153114 37 330 2.0 2.0 0.00 0.00 0.00 83 1004.9
20260506152611 37 306 1.0 1.0 0.00 0.00 0.00 83 1005.2
20260506152109 37 326 2.0 2.0 0.00 0.00 0.00 83 1004.8
20260506151607 37 298 1.0 1.0 0.00 0.00 0.00 82 1004.8
20260506151103 37 288 0.0 0.0 0.00 0.00 0.00 81 1004.9
20260506150600 37 107 2.0 3.0 0.00 0.00 0.00 80 1005.0
20260506150057 37 243 0.0 1.0 0.00 0.00 0.00 79 1004.8
20260506145554 37 271 0.0 0.0 0.00 0.00 0.00 79 1004.8
20260506145051 37 282 0.0 0.0 0.00 0.00 0.00 79 1004.7
20260506144548 37 274 0.0 0.0 0.00 0.00 0.00 79 1004.8
20260506144045 37 298 0.0 0.0 0.00 0.00 0.00 79 1004.7
20260506143543 37 285 0.0 0.0 0.00 0.00 0.00 79 1004.6
20260506143041 37 270 0.0 0.0 0.00 0.00 0.00 79 1004.7
20260506142538 37 277 0.0 0.0 0.00 0.00 0.00 79 1004.7
20260506142037 37 285 0.0 0.0 0.00 0.00 0.00 78 1004.7
20260506141534 37 308 1.0 1.0 0.00 0.00 0.00 78 1004.6
20260506141032 37 294 0.0 0.0 0.00 0.00 0.00 77 1004.6
20260506140529 37 297 0.0 0.0 0.00 0.00 0.00 77 1004.6
20260506140026 37 313 1.0 1.0 0.00 0.00 0.00 76 1004.6
20260506135523 37 287 0.0 0.0 0.00 0.00 0.00 76 1004.5
20260506135019 37 292 1.0 1.0 0.00 0.00 0.00 76 1004.7
20260506134515 37 290 0.0 0.0 0.00 0.00 0.00 76 1004.6
20260506134012 37 269 0.0 0.0 0.00 0.00 0.00 76 1004.5
20260506133509 37 282 0.0 1.0 0.00 0.00 0.00 76 1004.6
20260506133006 37 284 0.0 0.0 0.00 0.00 0.00 77 1004.6
20260506132503 38 320 1.0 1.0 0.00 0.00 0.00 77 1004.7
20260506132000 39 223 0.0 0.0 0.00 0.00 0.00 73 1004.3
20260506131457 38 273 0.0 0.0 0.00 0.00 0.00 73 1004.3
20260506130954 39 266 0.0 0.0 0.00 0.00 0.00 74 1004.5
20260506130450 39 284 0.0 0.0 0.00 0.00 0.00 72 1004.4
20260506125948 38 288 0.0 0.0 0.00 0.00 0.00 73 1004.4
20260506125446 38 282 0.0 0.0 0.00 0.00 0.00 74 1004.6
20260506124944 39 287 0.0 0.0 0.00 0.00 0.00 73 1004.4
20260506124441 39 262 0.0 0.0 0.00 0.00 0.00 72 1004.6
20260506123939 39 291 2.0 3.0 0.00 0.00 0.00 71 1004.2
20260506123437 39 329 1.0 1.0 0.00 0.00 0.00 70 1004.4
20260506122934 40 326 1.0 1.0 0.00 0.00 0.00 70 1004.4
20260506122431 41 331 10.0 10.0 0.00 0.00 0.00 68 1004.3
20260506121929 40 341 2.0 5.0 0.00 0.00 0.00 68 1004.4
20260506121426 40 328 3.0 5.0 0.00 0.00 0.00 68 1004.2
20260506120923 40 0 5.0 6.0 0.00 0.00 0.00 68 1004.2
20260506120420 40 273 1.0 2.0 0.00 0.00 0.00 69 1004.3
20260506115917 40 300 1.0 2.0 0.00 0.00 0.00 70 1004.2
20260506115415 40 291 0.0 1.0 0.00 0.00 0.00 69 1004.3
20260506114914 40 274 0.0 0.0 0.00 0.00 0.00 69 1004.3
20260506114411 40 319 0.0 1.0 0.00 0.00 0.00 68 1004.1
20260506113910 40 305 1.0 1.0 0.00 0.00 0.00 68 1004.2
20260506113407 40 157 2.0 3.0 0.00 0.00 0.00 69 1004.3
20260506112903 39 308 3.0 3.0 0.00 0.00 0.00 70 1004.2
20260506112401 39 235 0.0 1.0 0.00 0.00 0.00 71 1004.1
20260506111858 39 276 0.0 0.0 0.00 0.00 0.00 70 1004.3
20260506111356 40 257 0.0 0.0 0.00 0.00 0.00 70 1004.0
20260506110853 40 5 3.0 3.0 0.00 0.00 0.00 68 1004.4
20260506110350 40 355 0.0 1.0 0.00 0.00 0.00 68 1004.2
20260506105847 40 306 2.0 3.0 0.00 0.00 0.00 67 1004.1
20260506105343 40 292 1.0 1.0 0.00 0.00 0.00 69 1004.3
20260506104841 40 210 0.0 1.0 0.00 0.00 0.00 68 1004.0
20260506104338 39 292 2.0 2.0 0.00 0.00 0.00 69 1004.1
20260506103836 40 280 0.0 0.0 0.00 0.00 0.00 69 1004.2
20260506103333 40 359 1.0 2.0 0.00 0.00 0.00 69 1004.0
20260506102831 39 281 2.0 3.0 0.00 0.00 0.00 70 1003.9
20260506102328 39 270 0.0 0.0 0.00 0.00 0.00 71 1004.0
20260506101825 39 248 1.0 1.0 0.00 0.00 0.00 72 1004.1
20260506101321 38 235 1.0 1.0 0.00 0.00 0.00 73 1004.0
20260506100819 38 242 2.0 2.0 0.00 0.00 0.00 73 1003.8
20260506100318 39 227 1.0 1.0 0.00 0.00 0.00 72 1003.8
20260506095816 39 249 1.0 1.0 0.00 0.00 0.00 71 1004.0
20260506095312 39 282 0.0 0.0 0.00 0.00 0.00 70 1003.8
20260506094809 40 246 1.0 2.0 0.00 0.00 0.00 69 1003.9
20260506094308 40 295 0.0 0.0 0.00 0.00 0.00 67 1003.7
20260506093806 40 285 0.0 0.0 0.00 0.00 0.00 67 1003.7
20260506093302 40 309 1.0 1.0 0.00 0.00 0.00 67 1003.7
20260506092801 41 266 0.0 1.0 0.00 0.00 0.00 65 1003.6
20260506092258 41 343 5.0 7.0 0.00 0.00 0.00 64 1003.4
20260506091755 40 346 3.0 3.0 0.00 0.00 0.00 66 1003.5
20260506091252 40 343 2.0 2.0 0.00 0.00 0.00 66 1003.4
20260506090750 40 323 5.0 6.0 0.00 0.00 0.00 67 1003.4
20260506090247 40 340 8.0 10.0 0.00 0.00 0.00 66 1003.5
20260506085744 40 1 5.0 7.0 0.00 0.00 0.00 67 1003.6
20260506085240 40 329 4.0 6.0 0.00 0.00 0.00 66 1003.5
20260506084736 41 324 10.0 11.0 0.00 0.00 0.00 65 1003.4
20260506084232 41 333 8.0 11.0 0.00 0.00 0.00 65 1003.3
20260506083730 41 316 5.0 8.0 0.00 0.00 0.00 65 1003.2
20260506083222 41 329 7.0 8.0 0.00 0.00 0.00 65 1003.4
20260506082719 41 321 7.0 9.0 0.00 0.00 0.00 64 1003.3
20260506082215 41 335 8.0 11.0 0.00 0.00 0.00 63 1003.3
20260506081713 41 342 11.0 15.0 0.00 0.00 0.00 63 1003.2
20260506081210 42 325 8.0 9.0 0.00 0.00 0.00 61 1003.3
20260506080708 41 323 5.0 7.0 0.00 0.00 0.00 62 1003.2
20260506080204 41 296 11.0 13.0 0.00 0.00 0.00 61 1003.0
20260506073148 41 326 9.0 11.0 0.00 0.00 0.00 65 1003.0
20260506072644 41 325 8.0 10.0 0.00 0.00 0.00 65 1002.9
20260506072143 41 351 6.0 8.0 0.00 0.00 0.00 65 1002.9
20260506071640 41 336 6.0 6.0 0.00 0.00 0.00 64 1002.7
20260506071137 41 344 8.0 11.0 0.00 0.00 0.00 64 1002.8
20260506070634 41 330 10.0 15.0 0.00 0.00 0.00 64 1002.8
20260506070131 41 326 9.0 13.0 0.00 0.00 0.00 63 1002.9
20260506062109 42 347 7.0 8.0 0.00 0.00 0.00 62 1002.5
20260506061604 41 354 9.0 11.0 0.00 0.00 0.00 64 1002.3
20260506061102 42 342 8.0 10.0 0.00 0.00 0.00 63 1002.4
20260506060601 42 347 6.0 11.0 0.00 0.00 0.00 63 1002.3